Tracking 35280 objects as of 7-Sep-2026
HD Live streaming from Space Station
objects crossing your sky now

OSO 4


OSO 4 is no longer on orbit


NORAD ID: 3000
Int'l Code: 1967-100A
Launch date: October 18, 1967
Source: United States (US)
Launch site: AIR FORCE EASTERN TEST RANGE (AFETR)
Decay date: 1982-06-15
Your satellite tracking list
Your tracking list is empty




NASA's NSSDC Master Catalog

Two Line Element Set (TLE):
1 03000U 67100  A 82166.84204306  .21915013 -89813-5 +24740-3 0  9994
2 03000 032.9648 342.1325 0006045 332.2416 027.8089 16.49931191814598
Source of the keplerian elements: AFSPC